117  
SXUS51 KOKX 271157  
OSOOKX  
NEW YORK CITY METROPOLITAN AREA WEATHER ROUNDUP  
NATIONAL WEATHER SERVICE NEW YORK NY  
700 AM EST THU FEB 27 2020  
 
CITY SKY/WX TMP DP RH WIND PRES REMARKS  
CENTRAL PARK CLOUDY 42 36 79 SW13G22 29.38R  
LAGUARDIA ARPT CLOUDY 44 36 73 W21G33 29.35R  
KENNEDY INTL MOCLDY 43 39 86 W30G38 29.38R  
NEWARK LIBERTY MOCLDY 42 36 79 W20G36 29.39R  
TETERBORO ARPT CLOUDY 42 36 79 W18G28 29.35R  
BRONX LEHMAN C N/A 43 37 81 W16G35 N/A  
QUEENS COLLEGE N/A 43 39 87 W22G33 N/A  
BREEZY POINT N/A 43 N/A N/A W18G33 N/A  
BROOKLYN COLL N/A 43 36 75 W23G36 N/A  
STATEN ISLAND N/A 41 36 81 W17G29 N/A  
 
>>>>>>>>>>>>>>>>>>>>>>>>>>>>>>>>> KEY <<<<<<<<<<<<<<<<<<<<<<<<<<<<<<<  
> SKY/WX - SKY CONDITION/PRESENT : R : WCI - WIND CHILL INDEX <  
> WEATHER : E : VSB - VISIBILITY IN MILES <  
> TMP - TEMPERATURE IN DEG F : M : HX - HEAT INDEX <  
> DP - DEW POINT TEMPERATURE : A : TC - TEMPERATURE IN <  
> RH - RELATIVE HUMIDITY : R : CELSIUS <  
> WIND - DIRECTION/SPEED (MPH) : K : VRB - VARIABLE WIND DIR <  
> PRES - PRESSURE (IN HG) : S : <  
>>>>>>>>>>>>>>>>>>>>>>>>>>>>>>>>> KEY <<<<<<<<<<<<<<<<<<<<<<<<<<<<<<<  
 
 
CLICK HERE TO GO TO PREVIOUS BULLETINS.

The Nexlab NY Page
The Nexlab NJ Page
The Nexlab CT Page Main Text Page